パンスターズ彗星

C/2016 M1 ( PanSTARRS )

English version
Home page
Updated on March 25, 2017

---------------------------------------------------------------------

・ プロフィール

発見日 2016年6月22日
発見光度 19.7等
発見者 Pan-STARRS 1 telescope (Haleakala)

・ 写真集

・ 軌道要素

Epoch 2018 Aug. 30.0 TT = JDT 2458360.5
T 2018 Aug. 10.18519 TT                                 MPCW
q   2.2105578            (2000.0)            P               Q
z  +0.0004162      Peri.  209.82556     +0.02468756     -0.03425118
 +/-0.0000038      Node    92.20372     -0.59786448     +0.80048483
e   0.9990799      Incl.   90.99979     -0.80121694     -0.59837354
From 545 observations 2016 June 22-2017 Mar. 3, mean residual 0".5.

・ 星図

・ 光度変化

        m1 = 5.0 + 5 logΔ + 10.0 log r

---------------------------------------------------------------------

軌道要素はM.P.E.C. 2017-E59に掲載されたものです。
星図はステラナビゲータ Ver.10 (アストロアーツ) で作成したものです。
光度グラフはComet for Windowsで作成したものです。

---------------------------------------------------------------------

Copyright(C) Seiichi Yoshida (comet@aerith.net). All rights reserved.